This is the latest recevied weather packets stored in our database for station/object 9W2SSS-1. If no packets are shown the sender has not sent any weather packets the latest 10 day(s).
| Time | Temp. | Humidity | Pressure | Rain* | Wind** | Luminosity | Snow |
|---|---|---|---|---|---|---|---|
| 1777664600 | 27.78° C | 68% | 1007.8 hPa | - | - | - | - |
| 1777663400 | 28.33° C | 66% | 1008 hPa | - | - | - | - |
| 1777662200 | 28.89° C | 68% | 1008.3 hPa | - | - | - | - |
| 1777661000 | 28.89° C | 67% | 1008.5 hPa | - | - | - | - |
| 1777659800 | 28.89° C | 67% | 1008.6 hPa | - | - | - | - |
| 1777658600 | 28.89° C | 66% | 1008.9 hPa | - | - | - | - |
| 1777657400 | 28.33° C | 65% | 1009 hPa | - | - | - | - |
| 1777656200 | 28.33° C | 66% | 1009.2 hPa | - | - | - | - |
| 1777655000 | 28.33° C | 65% | 1009.4 hPa | - | - | - | - |
| 1777653800 | 28.33° C | 67% | 1009.6 hPa | - | - | - | - |
| 1777652600 | 28.89° C | 65% | 1009.8 hPa | - | - | - | - |
| 1777651399 | 29.44° C | 65% | 1010 hPa | - | - | - | - |
| 1777650199 | 29.44° C | 67% | 1009.9 hPa | - | - | - | - |
| 1777648999 | 29.44° C | 67% | 1010.1 hPa | - | - | - | - |
| 1777647799 | 29.44° C | 65% | 1010 hPa | - | - | - | - |
| 1777646599 | 29.44° C | 64% | 1009.8 hPa | - | - | - | - |
| 1777645399 | 29.44° C | 65% | 1009.6 hPa | - | - | - | - |
| 1777644199 | 30° C | 67% | 1009.4 hPa | - | - | - | - |
| 1777642999 | 30° C | 66% | 1009.2 hPa | - | - | - | - |
| 1777641799 | 30° C | 65% | 1009 hPa | - | - | - | - |
| 1777640599 | 30.56° C | 65% | 1008.7 hPa | - | - | - | - |
| 1777639399 | 30.56° C | 65% | 1008.6 hPa | - | - | - | - |
| 1777638199 | 30.56° C | 67% | 1008.4 hPa | - | - | - | - |
| 1777636999 | 30° C | 67% | 1008.1 hPa | - | - | - | - |
| 1777635799 | 30.56° C | 65% | 1007.5 hPa | - | - | - | - |
* Rain since midnight (hover to see other rain measurements)
** Current wind speed in m/s (hover to see current wind gust speed)